Flag for U.S.A. Weather past 2 weeks in Lubbock, Texas, U.S.A.

Now
53 °F

Passing clouds.


Feels Like: 51 °F
Forecast: 21 / 46 °F
Wind: 7 mph from South

Location: Lubbock International Airport

Current Time: Mar 3, 2015 at 10:00:33 PM

Latest Report: Mar 3, 2015 at 8:53 PM


Visibility: 10 mi

Pressure: 29.80 "Hg

Humidity: 66%

Dew point: 42 °F

Location of LubbockLocation

Historic Weather in Lubbock — Graph

°F

Lubbock temperature yesterday

Maximum temperature yesterday: 34 °F (at 8:53 PM)
Minimum temperature yesterday: 27 °F (at 7:53 AM)
Average temperature yesterday: 31 °F

Past Weeks' High & Low Weather Summary

 TemperatureHumidityPressure
High79 °F (Feb 20, 1:53 PM)100% (Mar 2, 8:53 AM)30.61 "Hg (Mar 2, 8:53 AM)
Low13 °F (Feb 27, 9:53 PM)9% (Feb 20, 2:53 PM)29.54 "Hg (Feb 20, 3:53 PM)
Average35 °F74%30.12 "Hg
* Reported Feb 16 8:53 PM — Mar 3 8:53 PM, Lubbock, Weather by CustomWeather, © 2015

Note: Actual official high and low records may vary slightly from our data, if they occured in-between our weather recording intervals... More about our weather records

Advertising

Lubbock weather history for previous 24 hours

 ConditionsComfort  
Time TempWeatherWind HumidityBarometerVisibility
8:53 PM
Tue, Mar 3
53 °FPassing clouds.7 mph66%29.80 "Hg10 mi
7:53 PM54 °FPassing clouds.8 mph67%29.78 "Hg10 mi
6:53 PM56 °FPassing clouds.6 mph62%29.76 "Hg10 mi
5:53 PM59 °FOvercast.No wind51%29.76 "Hg10 mi
4:53 PM60 °FOvercast.7 mph52%29.76 "Hg10 mi
3:53 PM61 °FPartly sunny.5 mph46%29.76 "Hg10 mi
2:53 PM61 °FPartly sunny.7 mph46%29.75 "Hg10 mi
1:53 PM58 °FBroken clouds.3 mph54%29.79 "Hg10 mi
12:53 PM53 °FMostly cloudy.7 mph72%29.83 "Hg10 mi
11:53 AM49 °FSunny.5 mph80%29.86 "Hg8 mi
10:53 AM46 °FMostly cloudy.9 mph83%29.90 "Hg7 mi
9:53 AM42 °FFog.6 mph92%29.90 "Hg6 mi
9:03 AM39 °FFog.7 mph96%29.91 "Hg2 mi
8:53 AM39 °FFog.3 mph96%29.91 "Hg1 mi
7:53 AM38 °FFog.9 mph97%29.91 "Hg1 mi
7:01 AM37 °FFog.15 mph100%29.89 "Hg2 mi
5:53 AM37 °FFog.10 mph100%29.89 "Hg3 mi
4:53 AM37 °FFog.10 mph100%29.90 "Hg4 mi
3:53 AM37 °FFog.16 mph96%29.90 "Hg6 mi
2:53 AM36 °FFog.20 mph100%29.93 "Hg2 mi
1:53 AM35 °FFog.16 mph100%29.95 "Hg2 mi
12:53 AM34 °FFog.13 mph100%29.99 "Hg2 mi
11:53 PM
Mon, Mar 2
34 °FFog.9 mph100%30.01 "Hg1 mi
10:53 PM34 °FFog.9 mph100%30.03 "Hg1 mi
Weather by CustomWeather, © 2015

See weather overviewHow to use our weather pages